TimeEST,TemperatureF,Dew PointF,Humidity,Sea Level PressureIn,VisibilityMPH,Wind Direction,Wind SpeedMPH,Gust SpeedMPH,PrecipitationIn,Events,Conditions,WindDirDegrees,DateUTC
12:37 AM,36.0,35.1,97,29.76,9.0,Calm,Calm,-,N/A,,Overcast,0,2013-11-23 05:37:00
12:53 AM,37.0,35.1,93,29.76,7.0,Calm,Calm,-,N/A,,Overcast,0,2013-11-23 05:53:00
1:53 AM,37.0,35.1,93,29.74,8.0,Calm,Calm,-,0.00,,Overcast,0,2013-11-23 06:53:00
2:53 AM,37.9,36.0,93,29.73,10.0,West,4.6,-,N/A,,Overcast,260,2013-11-23 07:53:00
3:16 AM,37.9,36.0,93,29.72,10.0,West,3.5,-,N/A,,Overcast,260,2013-11-23 08:16:00
3:53 AM,37.0,35.1,93,29.72,9.0,West,4.6,-,N/A,,Mostly Cloudy,280,2013-11-23 08:53:00
4:53 AM,37.0,34.0,89,29.72,10.0,West,5.8,-,N/A,,Clear,280,2013-11-23 09:53:00
5:53 AM,37.9,30.9,76,29.74,10.0,Variable,5.8,-,N/A,,Clear,0,2013-11-23 10:53:00
6:53 AM,37.0,27.0,67,29.77,10.0,WNW,9.2,-,N/A,,Mostly Cloudy,290,2013-11-23 11:53:00
7:53 AM,37.0,23.0,57,29.78,10.0,WNW,10.4,23.0,N/A,,Clear,300,2013-11-23 12:53:00
8:53 AM,37.9,21.0,51,29.81,10.0,Variable,5.8,19.6,N/A,,Clear,0,2013-11-23 13:53:00
9:53 AM,37.9,19.9,48,29.81,10.0,WNW,10.4,25.3,N/A,,Clear,290,2013-11-23 14:53:00
10:53 AM,39.0,19.0,45,29.79,10.0,WNW,12.7,25.3,N/A,,Clear,290,2013-11-23 15:53:00
11:53 AM,39.0,16.0,39,29.78,10.0,West,12.7,25.3,N/A,,Clear,280,2013-11-23 16:53:00
12:53 PM,41.0,14.0,33,29.75,10.0,West,8.1,19.6,N/A,,Clear,280,2013-11-23 17:53:00
1:53 PM,41.0,15.1,35,29.75,10.0,NW,9.2,18.4,N/A,,Clear,310,2013-11-23 18:53:00
2:53 PM,39.0,10.9,32,29.75,10.0,WNW,8.1,23.0,N/A,,Clear,300,2013-11-23 19:53:00
3:53 PM,36.0,12.9,39,29.74,10.0,WNW,8.1,-,N/A,,Clear,290,2013-11-23 20:53:00
4:53 PM,34.0,12.9,42,29.76,10.0,Variable,5.8,-,N/A,,Clear,0,2013-11-23 21:53:00
5:53 PM,30.9,12.9,47,29.75,10.0,Variable,3.5,-,N/A,,Clear,0,2013-11-23 22:53:00
6:53 PM,28.0,15.1,58,29.74,10.0,Calm,Calm,-,N/A,,Clear,0,2013-11-23 23:53:00
7:53 PM,25.0,16.0,69,29.73,10.0,Calm,Calm,-,N/A,,Clear,0,2013-11-24 00:53:00
8:53 PM,25.0,17.1,72,29.70,10.0,Calm,Calm,-,N/A,,Mostly Cloudy,0,2013-11-24 01:53:00
9:53 PM,27.0,17.1,66,29.70,10.0,West,3.5,-,N/A,,Mostly Cloudy,270,2013-11-24 02:53:00
10:53 PM,28.0,19.9,72,29.68,10.0,Variable,3.5,-,N/A,,Scattered Clouds,0,2013-11-24 03:53:00
11:17 PM,28.0,19.9,72,29.70,1.0,NW,8.1,17.3,0.01,Snow,Light Snow,320,2013-11-24 04:17:00
11:20 PM,27.0,21.9,81,29.70,0.5,Variable,4.6,17.3,0.02,Snow,Snow,0,2013-11-24 04:20:00
11:33 PM,27.0,24.1,89,29.69,0.2,Variable,5.8,-,0.05,Fog-Snow,Heavy Snow,0,2013-11-24 04:33:00
11:44 PM,27.0,25.0,92,29.68,0.8,Calm,Calm,-,0.06,Snow,Light Snow,0,2013-11-24 04:44:00
11:47 PM,26.6,24.8,93,29.68,1.5,Variable,3.5,-,0.06,Snow,Light Snow,0,2013-11-24 04:47:00
11:50 PM,26.6,24.8,93,29.68,3.0,West,4.6,-,0.06,Snow,Light Snow,280,2013-11-24 04:50:00
11:53 PM,27.0,24.1,89,29.68,5.0,West,3.5,-,0.06,Snow,Light Snow,270,2013-11-24 04:53:00